Zurück zum Katalog

STARLINK-32120

AktivKommunikationVLEO
NORAD 60265·PAYLOAD·🇺🇸 United States

Gestartet Jul 27, 2024 von Cape Canaveral Space Force Station

Loading…

Nächste Überflüge (nächste 24 Stunden)

TLE

AktuellSource: CelesTrak SupGP

Epoche: Sep 14, 2026, 14:35 UTC

1 60265C 24131L   26257.60812500 -.00025755  00000+0 -76128-3 0  2573
2 60265  53.1576 254.9152 0001225  79.2621 257.0149 15.34389285    10

Verfolge STARLINK-32120 in Echtzeit mit AllMySat

Download on the App Store